Flag Weather past 2 weeks in Melbourne, Victoria, Australia

Now
50 °F

Clear.


Feels Like: 47 °F
Forecast: 51 / 70 °F
Wind: 8 mph from Northwest

Location: Melbourne Airport

Current Time: Nov 25, 2014 at 1:22:23 AM

Latest Report: Nov 25, 2014 at 1:00 AM


Visibility: 10 mi

Pressure: 29.95 "Hg

Humidity: 82%

Dew point: 45 °F

Location of MelbourneLocation

Historic Weather in Melbourne — Graph

°F

Melbourne temperature yesterday

Maximum temperature yesterday: 73 °F (at 8:00 AM)
Minimum temperature yesterday: 52 °F (at 10:00 PM)
Average temperature yesterday: 60 °F

Past Weeks' High & Low Weather Summary

 TemperatureHumidityPressure
High91 °F (Nov 13, 3:30 PM)100% (Nov 15, 10:30 PM)30.24 "Hg (Nov 15, 10:30 PM)
Low43 °F (Nov 12, 4:00 AM)12% (Nov 13, 7:00 PM)29.62 "Hg (Nov 16, 4:30 AM)
Average63 °F60%29.93 "Hg
* Reported Midnight between Nov 9 and Nov 10 — Midnight between Nov 24 and Nov 25, Melbourne, Weather by CustomWeather, © 2014

Note: Actual official high and low records may vary slightly from our data, if they occured in-between our weather recording intervals... More about our weather records

Advertising

Melbourne weather history for previous 24 hours

 ConditionsComfort  
Time TempWeatherWind HumidityBarometerVisibility
12:00 AM
Nov 25
50 °FClear.7 mph82%29.95 "Hg10 mi
11:30 PM
Nov 24
52 °FPassing clouds.7 mph82%29.95 "HgN/A
11:00 PM52 °FPassing clouds.8 mph82%29.95 "HgN/A
10:30 PM54 °FPassing clouds.9 mph82%29.95 "HgN/A
10:00 PM52 °FPassing clouds.7 mph88%29.92 "HgN/A
9:30 PM55 °FPassing clouds.13 mph82%29.92 "HgN/A
9:00 PM57 °FPartly cloudy.10 mph77%29.92 "HgN/A
8:00 PM57 °FPartly sunny.14 mph77%29.86 "HgN/A
7:30 PM57 °FPartly sunny.17 mph77%29.86 "HgN/A
7:00 PM57 °FBroken clouds.24 mph82%29.83 "HgN/A
6:30 PM61 °FSprinkles. Partly sunny.26 mph83%29.80 "HgN/A
6:00 PM64 °FPartly sunny.10 mph73%29.77 "HgN/A
5:00 PM63 °FBroken clouds.15 mph83%29.74 "HgN/A
4:45 PM63 °FBroken clouds.16 mph88%29.74 "HgN/A
4:00 PM64 °FBroken clouds.7 mph94%29.71 "HgN/A
3:30 PM64 °FSprinkles. Broken clouds.7 mph94%29.74 "HgN/A
3:00 PM64 °FSprinkles. Broken clouds.16 mph88%29.71 "HgN/A
2:30 PM68 °FPartly sunny.12 mph83%29.71 "HgN/A
2:00 PM66 °FSprinkles. Broken clouds.7 mph88%29.68 "HgN/A
1:30 PM66 °FBroken clouds.13 mph88%29.68 "HgN/A
1:00 PM64 °FThunderstorms. Broken clouds.5 mph88%29.77 "HgN/A
12:30 PM63 °FBroken clouds.10 mph94%29.74 "HgN/A
12:00 PM63 °FSprinkles. Partly sunny.7 mph88%29.80 "HgN/A
11:30 AM61 °FSprinkles. Partly sunny.9 mph88%29.80 "HgN/A
11:00 AM63 °FSprinkles. Broken clouds.7 mph83%29.80 "HgN/A
10:30 AM63 °FBroken clouds.6 mph77%29.80 "HgN/A
10:00 AM61 °FSprinkles. Broken clouds.7 mph83%29.83 "HgN/A
9:30 AM63 °FPartly sunny.13 mph77%29.83 "HgN/A
9:00 AM68 °FSprinkles. Partly sunny.6 mph56%29.80 "HgN/A
8:00 AM73 °FSprinkles. Clear.29 mph36%29.71 "HgN/A
7:00 AM59 °FScattered showers. Clear.5 mph82%29.74 "HgN/A
6:30 AM57 °FScattered showers. Clear.8 mph82%29.77 "HgN/A
6:00 AM57 °FSprinkles. Clear.6 mph82%29.74 "HgN/A
5:30 AM55 °FClear.7 mph88%29.77 "Hg10 mi
5:00 AM54 °FClear.1 mph88%29.80 "Hg10 mi
4:30 AM54 °FClear.1 mph94%29.77 "Hg10 mi
4:00 AM55 °FClear.5 mph82%29.80 "Hg10 mi
3:30 AM54 °FClear.6 mph88%29.80 "Hg10 mi
3:00 AM55 °FClear.6 mph82%29.80 "Hg10 mi
2:30 AM57 °FClear.6 mph77%29.83 "Hg10 mi
2:00 AM55 °FClear.5 mph82%29.86 "Hg10 mi
1:30 AM57 °FClear.5 mph77%29.86 "Hg10 mi
1:00 AM57 °FClear.6 mph82%29.89 "Hg10 mi
Weather by CustomWeather, © 2014

See weather overviewHow to use our weather pages